"Sample Date","Sample Time","Sample Value","Units","Flow Rate","Sample Interval","Number Channels","Micron Size 0","Counts/Channel 0","Micron Size 1","Counts/Channel 1","Micron Size 2","Counts/Channel 2","Micron Size 3","Counts/Channel 3","Micron Size 4","Counts/Channel 4","Micron Size 5","Counts/Channel 5","Micron Size 6","Counts/Channel 6","Micron Size 7","Counts/Channel 7","Micron Size 8","Counts/Channel 8","Micron Size 9","Counts/Channel 9","Micron Size 10","Counts/Channel 10","Micron Size 11","Counts/Channel 11","Micron Size 12","Counts/Channel 12","Micron Size 13","Counts/Channel 13","Micron Size 14","Counts/Channel 14","Micron Size 15","Counts/Channel 15","Micron Size 16","Counts/Channel 16","Micron Size 17","Counts/Channel 17","Micron Size 18","Counts/Channel 18","Micron Size 19","Counts/Channel 19","Micron Size 20","Counts/Channel 20","Micron Size 21","Counts/Channel 21","Micron Size 22","Counts/Channel 22","Micron Size 23","Counts/Channel 23","Micron Size 24","Counts/Channel 24","Micron Size 25","Counts/Channel 25","Micron Size 26","Counts/Channel 26","Micron Size 27","Counts/Channel 27","Micron Size 28","Counts/Channel 28","Micron Size 29","Counts/Channel 29","Micron Size 30","Counts/Channel 30","Micron Size 31","Counts/Channel 31"
"03/08/08","22:00:02",12827.000,"cc",28309.629,6.00,6,0.100,11660.000,0.200,916.000,0.300,192.000,0.500,58.000,1.000,1.000,5.000,0
"03/08/08","22:00:08",13232.000,"cc",28288.852,6.00,6,0.100,11921.000,0.200,1021.000,0.300,215.000,0.500,72.000,1.000,3.000,5.000,0
"03/08/08","22:00:14",12890.000,"cc",28214.242,6.00,6,0.100,11700.000,0.200,929.000,0.300,187.000,0.500,71.000,1.000,3.000,5.000,0
"03/08/08","22:00:20",13391.000,"cc",28310.086,6.00,6,0.100,12072.000,0.200,1015.000,0.300,244.000,0.500,55.000,1.000,5.000,5.000,0
"03/08/08","22:00:26",13241.000,"cc",28310.231,6.00,6,0.100,11985.000,0.200,994.000,0.300,195.000,0.500,61.000,1.000,6.000,5.000,0
"03/08/08","22:00:32",12653.000,"cc",28367.949,6.00,6,0.100,11544.000,0.200,899.000,0.300,166.000,0.500,43.000,1.000,1.000,5.000,0
"03/08/08","22:00:38",13093.000,"cc",28348.945,6.00,6,0.100,11897.000,0.200,955.000,0.300,185.000,0.500,54.000,1.000,2.000,5.000,0
"03/08/08","22:00:44",12759.000,"cc",28236.404,6.00,6,0.100,11620.000,0.200,907.000,0.300,183.000,0.500,47.000,1.000,2.000,5.000,0
"03/08/08","22:00:50",12954.000,"cc",28396.016,6.00,6,0.100,11768.000,0.200,952.000,0.300,172.000,0.500,58.000,1.000,4.000,5.000,0
"03/08/08","22:00:56",12951.000,"cc",28251.084,6.00,6,0.100,11752.000,0.200,959.000,0.300,181.000,0.500,56.000,1.000,3.000,5.000,0
"03/08/08","22:01:02",12638.000,"cc",28394.248,6.00,6,0.100,11548.000,0.200,882.000,0.300,163.000,0.500,44.000,1.000,1.000,5.000,0
"03/08/08","22:01:08",12173.000,"cc",28320.281,6.00,6,0.100,11202.000,0.200,813.000,0.300,129.000,0.500,26.000,1.000,3.000,5.000,0
"03/08/08","22:01:14",12670.000,"cc",28323.359,6.00,6,0.100,11583.000,0.200,900.000,0.300,128.000,0.500,55.000,1.000,4.000,5.000,0
"03/08/08","22:01:20",12534.000,"cc",28232.203,6.00,6,0.100,11511.000,0.200,848.000,0.300,144.000,0.500,31.000,1.000,0,5.000,0
"03/08/08","22:01:26",13054.000,"cc",28399.559,6.00,6,0.100,11887.000,0.200,947.000,0.300,162.000,0.500,54.000,1.000,4.000,5.000,0
"03/08/08","22:01:32",12777.000,"cc",28251.371,6.00,6,0.100,11652.000,0.200,913.000,0.300,153.000,0.500,58.000,1.000,1.000,5.000,0
"03/08/08","22:01:38",13117.000,"cc",28411.068,6.00,6,0.100,11942.000,0.200,937.000,0.300,168.000,0.500,69.000,1.000,1.000,5.000,0
"03/08/08","22:01:44",12271.000,"cc",28218.971,6.00,6,0.100,11230.000,0.200,879.000,0.300,125.000,0.500,37.000,1.000,0,5.000,0
"03/08/08","22:01:50",12377.000,"cc",28378.207,6.00,6,0.100,11374.000,0.200,867.000,0.300,99.000,0.500,35.000,1.000,2.000,5.000,0
"03/08/08","22:01:56",12283.000,"cc",28400.482,6.00,6,0.100,11277.000,0.200,852.000,0.300,121.000,0.500,30.000,1.000,3.000,5.000,0
"03/08/08","22:02:02",11994.000,"cc",28283.748,6.00,6,0.100,11044.000,0.200,778.000,0.300,146.000,0.500,25.000,1.000,1.000,5.000,0
"03/08/08","22:02:08",12582.000,"cc",28298.494,6.00,6,0.100,11534.000,0.200,884.000,0.300,138.000,0.500,25.000,1.000,1.000,5.000,0
"03/08/08","22:02:14",12825.000,"cc",28300.123,6.00,6,0.100,11691.000,0.200,949.000,0.300,146.000,0.500,38.000,1.000,1.000,5.000,0
"03/08/08","22:02:20",12797.000,"cc",28338.063,6.00,6,0.100,11747.000,0.200,875.000,0.300,143.000,0.500,32.000,1.000,0,5.000,0
"03/08/08","22:02:26",13214.000,"cc",28279.018,6.00,6,0.100,12173.000,0.200,892.000,0.300,122.000,0.500,26.000,1.000,1.000,5.000,0
"03/08/08","22:02:32",12821.000,"cc",28342.441,6.00,6,0.100,11723.000,0.200,905.000,0.300,151.000,0.500,36.000,1.000,6.000,5.000,0
"03/08/08","22:02:38",13094.000,"cc",28317.440,6.00,6,0.100,11963.000,0.200,963.000,0.300,146.000,0.500,20.000,1.000,2.000,5.000,0
"03/08/08","22:02:44",13032.000,"cc",28336.463,6.00,6,0.100,11935.000,0.200,920.000,0.300,140.000,0.500,34.000,1.000,3.000,5.000,0
"03/08/08","22:02:50",12442.000,"cc",28243.191,6.00,6,0.100,11493.000,0.200,798.000,0.300,113.000,0.500,36.000,1.000,2.000,5.000,0
"03/08/08","22:02:56",12499.000,"cc",28351.902,6.00,6,0.100,11560.000,0.200,825.000,0.300,95.000,0.500,18.000,1.000,1.000,5.000,0
"03/08/08","22:03:02",12905.000,"cc",28314.219,6.00,6,0.100,11931.000,0.200,830.000,0.300,118.000,0.500,24.000,1.000,2.000,5.000,0
"03/08/08","22:03:08",12298.000,"cc",28340.404,6.00,6,0.100,11349.000,0.200,829.000,0.300,105.000,0.500,15.000,1.000,0,5.000,0
"03/08/08","22:03:14",12290.000,"cc",28332.383,6.00,6,0.100,11449.000,0.200,748.000,0.300,79.000,0.500,14.000,1.000,0,5.000,0
"03/08/08","22:03:20",12590.000,"cc",28327.793,6.00,6,0.100,11608.000,0.200,851.000,0.300,105.000,0.500,25.000,1.000,1.000,5.000,0
"03/08/08","22:03:26",12780.000,"cc",28221.576,6.00,6,0.100,11796.000,0.200,850.000,0.300,112.000,0.500,21.000,1.000,1.000,5.000,0
"03/08/08","22:03:32",12284.000,"cc",28365.625,6.00,6,0.100,11374.000,0.200,807.000,0.300,84.000,0.500,18.000,1.000,1.000,5.000,0
"03/08/08","22:03:38",12056.000,"cc",28370.943,6.00,6,0.100,11168.000,0.200,772.000,0.300,95.000,0.500,19.000,1.000,2.000,5.000,0
"03/08/08","22:03:44",11865.000,"cc",28328.963,6.00,6,0.100,11066.000,0.200,716.000,0.300,70.000,0.500,11.000,1.000,2.000,5.000,0
"03/08/08","22:03:50",12487.000,"cc",28334.990,6.00,6,0.100,11506.000,0.200,843.000,0.300,113.000,0.500,24.000,1.000,1.000,5.000,0
"03/08/08","22:03:56",12225.000,"cc",28140.289,6.00,6,0.100,11337.000,0.200,749.000,0.300,107.000,0.500,31.000,1.000,1.000,5.000,0
"03/08/08","22:04:02",12620.000,"cc",28336.572,6.00,6,0.100,11681.000,0.200,819.000,0.300,95.000,0.500,21.000,1.000,4.000,5.000,0
"03/08/08","22:04:08",12316.000,"cc",28309.184,6.00,6,0.100,11386.000,0.200,808.000,0.300,98.000,0.500,20.000,1.000,4.000,5.000,0
"03/08/08","22:04:14",11748.000,"cc",28409.549,6.00,6,0.100,10915.000,0.200,734.000,0.300,82.000,0.500,17.000,1.000,0,5.000,0
"03/08/08","22:04:20",11650.000,"cc",28326.570,6.00,6,0.100,10878.000,0.200,688.000,0.300,72.000,0.500,12.000,1.000,0,5.000,0
"03/08/08","22:04:26",12272.000,"cc",28367.734,6.00,6,0.100,11373.000,0.200,800.000,0.300,72.000,0.500,25.000,1.000,2.000,5.000,0
"03/08/08","22:04:32",11959.000,"cc",28301.059,6.00,6,0.100,11141.000,0.200,737.000,0.300,67.000,0.500,13.000,1.000,1.000,5.000,0
"03/08/08","22:04:38",11953.000,"cc",28327.303,6.00,6,0.100,11081.000,0.200,783.000,0.300,73.000,0.500,14.000,1.000,2.000,5.000,0
"03/08/08","22:04:44",11348.000,"cc",28235.262,6.00,6,0.100,10633.000,0.200,643.000,0.300,60.000,0.500,12.000,1.000,0,5.000,0
"03/08/08","22:04:50",11732.000,"cc",28348.369,6.00,6,0.100,10933.000,0.200,709.000,0.300,79.000,0.500,10.000,1.000,1.000,5.000,0
"03/08/08","22:04:56",11416.000,"cc",28328.555,6.00,6,0.100,10666.000,0.200,677.000,0.300,61.000,0.500,12.000,1.000,0,5.000,0
"03/08/08","22:05:02",11797.000,"cc",28274.272,6.00,6,0.100,10979.000,0.200,732.000,0.300,75.000,0.500,11.000,1.000,0,5.000,0
"03/08/08","22:05:08",11772.000,"cc",28279.873,6.00,6,0.100,10992.000,0.200,707.000,0.300,64.000,0.500,9.000,1.000,0,5.000,0
"03/08/08","22:05:14",11772.000,"cc",28443.861,6.00,6,0.100,11037.000,0.200,684.000,0.300,43.000,0.500,7.000,1.000,1.000,5.000,0
"03/08/08","22:05:20",11783.000,"cc",28324.674,6.00,6,0.100,11007.000,0.200,698.000,0.300,66.000,0.500,12.000,1.000,0,5.000,0
"03/08/08","22:05:26",11803.000,"cc",28275.670,6.00,6,0.100,11013.000,0.200,724.000,0.300,58.000,0.500,8.000,1.000,0,5.000,0
"03/08/08","22:05:32",12033.000,"cc",28276.719,6.00,6,0.100,11259.000,0.200,708.000,0.300,56.000,0.500,10.000,1.000,0,5.000,0
"03/08/08","22:05:38",12208.000,"cc",28288.484,6.00,6,0.100,11406.000,0.200,721.000,0.300,72.000,0.500,6.000,1.000,3.000,5.000,0
"03/08/08","22:05:44",11773.000,"cc",28309.297,6.00,6,0.100,11008.000,0.200,694.000,0.300,57.000,0.500,13.000,1.000,1.000,5.000,0
"03/08/08","22:05:50",12211.000,"cc",28416.830,6.00,6,0.100,11379.000,0.200,732.000,0.300,88.000,0.500,12.000,1.000,0,5.000,0
"03/08/08","22:05:56",11693.000,"cc",28276.969,6.00,6,0.100,10947.000,0.200,672.000,0.300,63.000,0.500,10.000,1.000,1.000,5.000,0
"03/08/08","22:06:02",11682.000,"cc",28309.893,6.00,6,0.100,10950.000,0.200,660.000,0.300,60.000,0.500,12.000,1.000,0,5.000,0
"03/08/08","22:06:08",11734.000,"cc",28373.990,6.00,6,0.100,11007.000,0.200,678.000,0.300,44.000,0.500,5.000,1.000,0,5.000,0
"03/08/08","22:06:14",11817.000,"cc",28248.481,6.00,6,0.100,11065.000,0.200,676.000,0.300,69.000,0.500,7.000,1.000,0,5.000,0
"03/08/08","22:06:20",11961.000,"cc",28301.561,6.00,6,0.100,11196.000,0.200,665.000,0.300,84.000,0.500,16.000,1.000,0,5.000,0
"03/08/08","22:06:26",11870.000,"cc",28346.402,6.00,6,0.100,11116.000,0.200,686.000,0.300,58.000,0.500,10.000,1.000,0,5.000,0
"03/08/08","22:06:32",11734.000,"cc",28366.338,6.00,6,0.100,10992.000,0.200,681.000,0.300,52.000,0.500,8.000,1.000,1.000,5.000,0
"03/08/08","22:06:38",11635.000,"cc",28254.297,6.00,6,0.100,10974.000,0.200,609.000,0.300,49.000,0.500,3.000,1.000,0,5.000,0
"03/08/08","22:06:44",11926.000,"cc",28352.979,6.00,6,0.100,11115.000,0.200,741.000,0.300,55.000,0.500,14.000,1.000,1.000,5.000,0
"03/08/08","22:06:50",11527.000,"cc",28243.965,6.00,6,0.100,10865.000,0.200,609.000,0.300,45.000,0.500,8.000,1.000,0,5.000,0
"03/08/08","22:06:56",11838.000,"cc",28359.225,6.00,6,0.100,11053.000,0.200,718.000,0.300,64.000,0.500,3.000,1.000,0,5.000,0
"03/08/08","22:07:02",11356.000,"cc",28232.684,6.00,6,0.100,10733.000,0.200,575.000,0.300,43.000,0.500,3.000,1.000,2.000,5.000,0
"03/08/08","22:07:08",11982.000,"cc",28330.945,6.00,6,0.100,11223.000,0.200,692.000,0.300,56.000,0.500,10.000,1.000,1.000,5.000,0
"03/08/08","22:07:14",11573.000,"cc",28327.061,6.00,6,0.100,10874.000,0.200,635.000,0.300,58.000,0.500,6.000,1.000,0,5.000,0
"03/08/08","22:07:20",11988.000,"cc",28322.508,6.00,6,0.100,11293.000,0.200,653.000,0.300,34.000,0.500,7.000,1.000,1.000,5.000,0
"03/08/08","22:07:26",11533.000,"cc",28333.473,6.00,6,0.100,10927.000,0.200,567.000,0.300,35.000,0.500,4.000,1.000,0,5.000,0
"03/08/08","22:07:32",11927.000,"cc",28307.359,6.00,6,0.100,11147.000,0.200,718.000,0.300,55.000,0.500,6.000,1.000,1.000,5.000,0
"03/08/08","22:07:38",12214.000,"cc",28355.736,6.00,6,0.100,11443.000,0.200,699.000,0.300,63.000,0.500,9.000,1.000,0,5.000,0
"03/08/08","22:07:44",11817.000,"cc",28391.590,6.00,6,0.100,11127.000,0.200,650.000,0.300,35.000,0.500,5.000,1.000,0,5.000,0
"03/08/08","22:07:50",11765.000,"cc",28278.285,6.00,6,0.100,11069.000,0.200,636.000,0.300,52.000,0.500,8.000,1.000,0,5.000,0
"03/08/08","22:07:56",11854.000,"cc",28363.041,6.00,6,0.100,11118.000,0.200,669.000,0.300,60.000,0.500,7.000,1.000,0,5.000,0
"03/08/08","22:08:02",11930.000,"cc",28142.391,6.00,6,0.100,11191.000,0.200,672.000,0.300,59.000,0.500,8.000,1.000,0,5.000,0
"03/08/08","22:08:08",12086.000,"cc",28308.041,6.00,6,0.100,11354.000,0.200,674.000,0.300,50.000,0.500,8.000,1.000,0,5.000,0
"03/08/08","22:08:14",11916.000,"cc",28369.822,6.00,6,0.100,11181.000,0.200,691.000,0.300,37.000,0.500,7.000,1.000,0,5.000,0
"03/08/08","22:08:20",12247.000,"cc",28390.264,6.00,6,0.100,11526.000,0.200,689.000,0.300,27.000,0.500,5.000,1.000,0,5.000,0
"03/08/08","22:08:26",12136.000,"cc",28288.848,6.00,6,0.100,11363.000,0.200,719.000,0.300,47.000,0.500,7.000,1.000,0,5.000,0
"03/08/08","22:08:32",11592.000,"cc",28246.947,6.00,6,0.100,10933.000,0.200,613.000,0.300,41.000,0.500,4.000,1.000,1.000,5.000,0
"03/08/08","22:08:38",12004.000,"cc",28349.453,6.00,6,0.100,11327.000,0.200,637.000,0.300,36.000,0.500,4.000,1.000,0,5.000,0
"03/08/08","22:08:44",11620.000,"cc",28252.830,6.00,6,0.100,10944.000,0.200,629.000,0.300,42.000,0.500,5.000,1.000,0,5.000,0
"03/08/08","22:08:50",11964.000,"cc",28348.207,6.00,6,0.100,11256.000,0.200,670.000,0.300,30.000,0.500,8.000,1.000,0,5.000,0
"03/08/08","22:08:56",11738.000,"cc",28262.459,6.00,6,0.100,11029.000,0.200,671.000,0.300,31.000,0.500,7.000,1.000,0,5.000,0
"03/08/08","22:09:02",12093.000,"cc",28420.691,6.00,6,0.100,11318.000,0.200,712.000,0.300,54.000,0.500,8.000,1.000,1.000,5.000,0
"03/08/08","22:09:08",11776.000,"cc",28266.375,6.00,6,0.100,11092.000,0.200,641.000,0.300,40.000,0.500,3.000,1.000,0,5.000,0
"03/08/08","22:09:14",12032.000,"cc",28273.340,6.00,6,0.100,11349.000,0.200,620.000,0.300,58.000,0.500,5.000,1.000,0,5.000,0
"03/08/08","22:09:20",11606.000,"cc",28371.078,6.00,6,0.100,10959.000,0.200,607.000,0.300,36.000,0.500,4.000,1.000,0,5.000,0
"03/08/08","22:09:26",11979.000,"cc",28265.076,6.00,6,0.100,11192.000,0.200,720.000,0.300,60.000,0.500,7.000,1.000,0,5.000,0
"03/08/08","22:09:32",11715.000,"cc",28356.148,6.00,6,0.100,11073.000,0.200,604.000,0.300,36.000,0.500,2.000,1.000,0,5.000,0
"03/08/08","22:09:38",11731.000,"cc",28388.746,6.00,6,0.100,11073.000,0.200,614.000,0.300,36.000,0.500,7.000,1.000,1.000,5.000,0
"03/08/08","22:09:44",12004.000,"cc",28282.506,6.00,6,0.100,11321.000,0.200,639.000,0.300,40.000,0.500,3.000,1.000,1.000,5.000,0
"03/08/08","22:09:50",11871.000,"cc",28300.912,6.00,6,0.100,11204.000,0.200,618.000,0.300,43.000,0.500,6.000,1.000,0,5.000,0
"03/08/08","22:09:56",11910.000,"cc",28353.629,6.00,6,0.100,11225.000,0.200,637.000,0.300,41.000,0.500,7.000,1.000,0,5.000,0
"03/08/08","22:10:02",11724.000,"cc",28281.932,6.00,6,0.100,11094.000,0.200,596.000,0.300,32.000,0.500,2.000,1.000,0,5.000,0
"03/08/08","22:10:08",11608.000,"cc",28298.647,6.00,6,0.100,10958.000,0.200,602.000,0.300,44.000,0.500,4.000,1.000,0,5.000,0
"03/08/08","22:10:14",11968.000,"cc",28332.627,6.00,6,0.100,11278.000,0.200,638.000,0.300,48.000,0.500,4.000,1.000,0,5.000,0
"03/08/08","22:10:20",11581.000,"cc",28285.848,6.00,6,0.100,10939.000,0.200,598.000,0.300,42.000,0.500,2.000,1.000,0,5.000,0
"03/08/08","22:10:26",11979.000,"cc",28316.209,6.00,6,0.100,11285.000,0.200,655.000,0.300,34.000,0.500,5.000,1.000,0,5.000,0
"03/08/08","22:10:32",12243.000,"cc",28316.820,6.00,6,0.100,11501.000,0.200,686.000,0.300,50.000,0.500,6.000,1.000,0,5.000,0
"03/08/08","22:10:38",11697.000,"cc",28244.576,6.00,6,0.100,11058.000,0.200,603.000,0.300,27.000,0.500,9.000,1.000,0,5.000,0
"03/08/08","22:10:44",11675.000,"cc",28460.691,6.00,6,0.100,11011.000,0.200,623.000,0.300,35.000,0.500,6.000,1.000,0,5.000,0
"03/08/08","22:10:50",11974.000,"cc",28286.172,6.00,6,0.100,11264.000,0.200,671.000,0.300,34.000,0.500,5.000,1.000,0,5.000,0
"03/08/08","22:10:56",12047.000,"cc",28270.453,6.00,6,0.100,11388.000,0.200,626.000,0.300,32.000,0.500,1.000,1.000,0,5.000,0
"03/08/08","22:11:02",11815.000,"cc",28295.561,6.00,6,0.100,11194.000,0.200,602.000,0.300,18.000,0.500,1.000,1.000,0,5.000,0
"03/08/08","22:11:08",12039.000,"cc",28395.895,6.00,6,0.100,11331.000,0.200,673.000,0.300,32.000,0.500,3.000,1.000,0,5.000,0
"03/08/08","22:11:14",11852.000,"cc",28275.006,6.00,6,0.100,11206.000,0.200,600.000,0.300,41.000,0.500,5.000,1.000,0,5.000,0
"03/08/08","22:11:20",11864.000,"cc",28308.113,6.00,6,0.100,11183.000,0.200,646.000,0.300,31.000,0.500,4.000,1.000,0,5.000,0
"03/08/08","22:11:26",12193.000,"cc",28327.988,6.00,6,0.100,11506.000,0.200,658.000,0.300,28.000,0.500,1.000,1.000,0,5.000,0
"03/08/08","22:11:32",11761.000,"cc",28310.424,6.00,6,0.100,11109.000,0.200,620.000,0.300,28.000,0.500,4.000,1.000,0,5.000,0
"03/08/08","22:11:38",11773.000,"cc",28345.176,6.00,6,0.100,11139.000,0.200,602.000,0.300,28.000,0.500,4.000,1.000,0,5.000,0
"03/08/08","22:11:44",12307.000,"cc",28254.453,6.00,6,0.100,11569.000,0.200,688.000,0.300,44.000,0.500,6.000,1.000,0,5.000,0
"03/08/08","22:11:50",11932.000,"cc",28259.266,6.00,6,0.100,11262.000,0.200,636.000,0.300,30.000,0.500,4.000,1.000,0,5.000,0
"03/08/08","22:11:56",11951.000,"cc",28420.252,6.00,6,0.100,11300.000,0.200,627.000,0.300,21.000,0.500,3.000,1.000,0,5.000,0
"03/08/08","22:12:02",11810.000,"cc",28297.871,6.00,6,0.100,11181.000,0.200,602.000,0.300,24.000,0.500,3.000,1.000,0,5.000,0
"03/08/08","22:12:08",11935.000,"cc",28341.834,6.00,6,0.100,11290.000,0.200,615.000,0.300,29.000,0.500,1.000,1.000,0,5.000,0
"03/08/08","22:12:14",11727.000,"cc",28258.016,6.00,6,0.100,11104.000,0.200,585.000,0.300,31.000,0.500,7.000,1.000,0,5.000,0
"03/08/08","22:12:20",12036.000,"cc",28363.076,6.00,6,0.100,11356.000,0.200,623.000,0.300,49.000,0.500,8.000,1.000,0,5.000,0
"03/08/08","22:12:26",11869.000,"cc",28276.932,6.00,6,0.100,11168.000,0.200,660.000,0.300,39.000,0.500,2.000,1.000,0,5.000,0
"03/08/08","22:12:32",11653.000,"cc",28365.541,6.00,6,0.100,11021.000,0.200,601.000,0.300,26.000,0.500,4.000,1.000,1.000,5.000,0
"03/08/08","22:12:38",11952.000,"cc",28344.301,6.00,6,0.100,11237.000,0.200,663.000,0.300,50.000,0.500,2.000,1.000,0,5.000,0
"03/08/08","22:12:44",11724.000,"cc",28173.773,6.00,6,0.100,11081.000,0.200,598.000,0.300,40.000,0.500,5.000,1.000,0,5.000,0
"03/08/08","22:12:50",11538.000,"cc",28383.281,6.00,6,0.100,10904.000,0.200,594.000,0.300,34.000,0.500,6.000,1.000,0,5.000,0
"03/08/08","22:12:56",12143.000,"cc",28377.699,6.00,6,0.100,11475.000,0.200,626.000,0.300,32.000,0.500,9.000,1.000,1.000,5.000,0
"03/08/08","22:13:02",11354.000,"cc",28399.850,6.00,6,0.100,10690.000,0.200,626.000,0.300,31.000,0.500,7.000,1.000,0,5.000,0
"03/08/08","22:13:08",11570.000,"cc",28273.549,6.00,6,0.100,10956.000,0.200,576.000,0.300,36.000,0.500,2.000,1.000,0,5.000,0
"03/08/08","22:13:14",11719.000,"cc",28280.541,6.00,6,0.100,11094.000,0.200,595.000,0.300,28.000,0.500,2.000,1.000,0,5.000,0
"03/08/08","22:13:20",11844.000,"cc",28369.686,6.00,6,0.100,11258.000,0.200,556.000,0.300,28.000,0.500,2.000,1.000,0,5.000,0
"03/08/08","22:13:26",11751.000,"cc",28289.889,6.00,6,0.100,11115.000,0.200,610.000,0.300,21.000,0.500,5.000,1.000,0,5.000,0
"03/08/08","22:13:32",11871.000,"cc",28271.150,6.00,6,0.100,11124.000,0.200,706.000,0.300,34.000,0.500,6.000,1.000,1.000,5.000,0
"03/08/08","22:13:38",11430.000,"cc",28251.631,6.00,6,0.100,10786.000,0.200,621.000,0.300,19.000,0.500,4.000,1.000,0,5.000,0
"03/08/08","22:13:44",11784.000,"cc",28308.891,6.00,6,0.100,11118.000,0.200,624.000,0.300,36.000,0.500,6.000,1.000,0,5.000,0
"03/08/08","22:13:50",11510.000,"cc",28320.037,6.00,6,0.100,10835.000,0.200,626.000,0.300,42.000,0.500,7.000,1.000,0,5.000,0
"03/08/08","22:13:56",11850.000,"cc",28420.576,6.00,6,0.100,11217.000,0.200,597.000,0.300,35.000,0.500,1.000,1.000,0,5.000,0
"03/08/08","22:14:02",11397.000,"cc",28212.461,6.00,6,0.100,10755.000,0.200,616.000,0.300,20.000,0.500,5.000,1.000,1.000,5.000,0
"03/08/08","22:14:08",11808.000,"cc",28363.213,6.00,6,0.100,11150.000,0.200,624.000,0.300,31.000,0.500,3.000,1.000,0,5.000,0
"03/08/08","22:14:14",11443.000,"cc",28296.031,6.00,6,0.100,10830.000,0.200,576.000,0.300,34.000,0.500,3.000,1.000,0,5.000,0
"03/08/08","22:14:20",11804.000,"cc",28335.346,6.00,6,0.100,11125.000,0.200,641.000,0.300,35.000,0.500,3.000,1.000,0,5.000,0
"03/08/08","22:14:26",11724.000,"cc",28309.029,6.00,6,0.100,11071.000,0.200,603.000,0.300,43.000,0.500,4.000,1.000,3.000,5.000,0
"03/08/08","22:14:32",11917.000,"cc",28278.160,6.00,6,0.100,11214.000,0.200,653.000,0.300,44.000,0.500,6.000,1.000,0,5.000,0
"03/08/08","22:14:38",11664.000,"cc",28319.746,6.00,6,0.100,11024.000,0.200,607.000,0.300,30.000,0.500,3.000,1.000,0,5.000,0
"03/08/08","22:14:44",11725.000,"cc",28349.199,6.00,6,0.100,11099.000,0.200,590.000,0.300,34.000,0.500,1.000,1.000,1.000,5.000,0
"03/08/08","22:14:50",11654.000,"cc",28329.756,6.00,6,0.100,11026.000,0.200,593.000,0.300,30.000,0.500,5.000,1.000,0,5.000,0
"03/08/08","22:14:56",11727.000,"cc",28308.697,6.00,6,0.100,11074.000,0.200,610.000,0.300,36.000,0.500,7.000,1.000,0,5.000,0
"03/08/08","22:15:02",11615.000,"cc",28325.951,6.00,6,0.100,10995.000,0.200,587.000,0.300,29.000,0.500,4.000,1.000,0,5.000,0
"03/08/08","22:15:08",11685.000,"cc",28308.617,6.00,6,0.100,11035.000,0.200,613.000,0.300,30.000,0.500,6.000,1.000,1.000,5.000,0
"03/08/08","22:15:14",11830.000,"cc",28322.369,6.00,6,0.100,11223.000,0.200,580.000,0.300,24.000,0.500,3.000,1.000,0,5.000,0
"03/08/08","22:15:20",11806.000,"cc",28385.742,6.00,6,0.100,11181.000,0.200,598.000,0.300,23.000,0.500,2.000,1.000,2.000,5.000,0
"03/08/08","22:15:26",11587.000,"cc",28233.887,6.00,6,0.100,10964.000,0.200,599.000,0.300,20.000,0.500,4.000,1.000,0,5.000,0
"03/08/08","22:15:32",11822.000,"cc",28337.086,6.00,6,0.100,11135.000,0.200,667.000,0.300,18.000,0.500,2.000,1.000,0,5.000,0
"03/08/08","22:15:38",11993.000,"cc",28359.121,6.00,6,0.100,11346.000,0.200,611.000,0.300,33.000,0.500,3.000,1.000,0,5.000,0
"03/08/08","22:15:44",11816.000,"cc",28287.885,6.00,6,0.100,11200.000,0.200,566.000,0.300,41.000,0.500,9.000,1.000,0,5.000,0
"03/08/08","22:15:50",11991.000,"cc",28293.961,6.00,6,0.100,11305.000,0.200,647.000,0.300,34.000,0.500,5.000,1.000,0,5.000,0
"03/08/08","22:15:56",11966.000,"cc",28305.525,6.00,6,0.100,11278.000,0.200,657.000,0.300,29.000,0.500,2.000,1.000,0,5.000,0
"03/08/08","22:16:02",12187.000,"cc",28332.908,6.00,6,0.100,11506.000,0.200,644.000,0.300,34.000,0.500,3.000,1.000,0,5.000,0
"03/08/08","22:16:08",12106.000,"cc",28326.873,6.00,6,0.100,11421.000,0.200,667.000,0.300,16.000,0.500,2.000,1.000,0,5.000,0
"03/08/08","22:16:14",11935.000,"cc",28326.871,6.00,6,0.100,11356.000,0.200,547.000,0.300,26.000,0.500,4.000,1.000,2.000,5.000,0
"03/08/08","22:16:20",12276.000,"cc",28347.295,6.00,6,0.100,11595.000,0.200,652.000,0.300,27.000,0.500,2.000,1.000,0,5.000,0
"03/08/08","22:16:26",11899.000,"cc",28254.912,6.00,6,0.100,11198.000,0.200,671.000,0.300,29.000,0.500,1.000,1.000,0,5.000,0
"03/08/08","22:16:32",12036.000,"cc",28336.982,6.00,6,0.100,11356.000,0.200,647.000,0.300,29.000,0.500,4.000,1.000,0,5.000,0
"03/08/08","22:16:38",11798.000,"cc",28323.856,6.00,6,0.100,11152.000,0.200,621.000,0.300,23.000,0.500,2.000,1.000,0,5.000,0
"03/08/08","22:16:44",11965.000,"cc",28284.291,6.00,6,0.100,11342.000,0.200,607.000,0.300,14.000,0.500,2.000,1.000,0,5.000,0
"03/08/08","22:16:50",12468.000,"cc",28354.926,6.00,6,0.100,11736.000,0.200,692.000,0.300,35.000,0.500,5.000,1.000,0,5.000,0
"03/08/08","22:16:56",11675.000,"cc",28218.973,6.00,6,0.100,11040.000,0.200,607.000,0.300,27.000,0.500,1.000,1.000,0,5.000,0
"03/08/08","22:17:02",12196.000,"cc",28307.412,6.00,6,0.100,11480.000,0.200,682.000,0.300,30.000,0.500,4.000,1.000,0,5.000,0
"03/08/08","22:17:08",11910.000,"cc",28285.053,6.00,6,0.100,11224.000,0.200,655.000,0.300,27.000,0.500,4.000,1.000,0,5.000,0
"03/08/08","22:17:14",11840.000,"cc",28401.920,6.00,6,0.100,11224.000,0.200,594.000,0.300,19.000,0.500,3.000,1.000,0,5.000,0
"03/08/08","22:17:20",11894.000,"cc",28295.619,6.00,6,0.100,11208.000,0.200,659.000,0.300,23.000,0.500,4.000,1.000,0,5.000,0
"03/08/08","22:17:26",12099.000,"cc",28266.723,6.00,6,0.100,11424.000,0.200,654.000,0.300,18.000,0.500,3.000,1.000,0,5.000,0
"03/08/08","22:17:32",12173.000,"cc",28367.475,6.00,6,0.100,11533.000,0.200,617.000,0.300,21.000,0.500,2.000,1.000,0,5.000,0
"03/08/08","22:17:38",12291.000,"cc",28342.426,6.00,6,0.100,11565.000,0.200,687.000,0.300,37.000,0.500,2.000,1.000,0,5.000,0